Time,TemperatureF,DewpointF,PressureIn,WindDirection,WindDirectionDegrees,WindSpeedMPH,WindSpeedGustMPH,Humidity,HourlyPrecipIn,Conditions,Clouds,dailyrainin,SoftwareType,DateUTC
2013-02-13 00:03:00,37.3,26.6,29.93,NE,50,1.0,3.0,65,0.00,,,0.00,Wunderground PWS Mod,2013-02-13 05:03:00,
2013-02-13 00:14:00,37.3,26.2,29.94,NE,50,1.0,5.0,64,0.00,,,0.00,Wunderground PWS Mod,2013-02-13 05:14:00,
2013-02-13 00:15:00,37.3,26.6,29.94,NE,50,1.0,5.0,65,0.00,,,0.00,Wunderground PWS Mod,2013-02-13 05:15:00,
2013-02-13 00:18:00,37.2,26.1,29.96,NE,45,2.0,3.0,64,0.00,,,0.00,Wunderground PWS Mod,2013-02-13 05:18:00,
2013-02-13 00:24:00,37.1,26.0,29.94,NE,50,1.0,5.0,64,0.00,,,0.00,Wunderground PWS Mod,2013-02-13 05:24:00,
2013-02-13 00:34:00,36.9,25.9,29.94,NE,50,1.0,5.0,64,0.00,,,0.00,Wunderground PWS Mod,2013-02-13 05:34:00,
2013-02-13 00:44:00,36.7,25.7,29.93,NE,50,1.0,5.0,64,0.00,,,0.00,Wunderground PWS Mod,2013-02-13 05:44:00,
2013-02-13 00:50:00,36.8,25.4,29.96,NE,45,1.0,4.0,63,0.00,,,0.00,Wunderground PWS Mod,2013-02-13 05:50:00,
2013-02-13 00:52:00,36.8,25.4,29.96,NE,45,1.0,4.0,63,0.00,,,0.00,Wunderground PWS Mod,2013-02-13 05:52:00,
2013-02-13 00:53:00,36.8,25.8,29.94,NE,50,0.0,5.0,64,0.00,,,0.00,Wunderground PWS Mod,2013-02-13 05:53:00,
2013-02-13 00:54:00,36.8,25.4,29.96,NE,45,1.0,4.0,63,0.00,,,0.00,Wunderground PWS Mod,2013-02-13 05:54:00,
2013-02-13 01:03:00,37.0,25.6,29.94,NE,50,0.0,3.0,63,0.00,,,0.00,Wunderground PWS Mod,2013-02-13 06:03:00,
2013-02-13 01:13:00,36.7,25.3,29.94,NE,50,0.0,4.0,63,0.00,,,0.00,Wunderground PWS Mod,2013-02-13 06:13:00,
2013-02-13 01:18:00,36.4,26.1,29.96,NE,45,0.0,2.0,66,0.00,,,0.00,Wunderground PWS Mod,2013-02-13 06:18:00,
2013-02-13 01:24:00,36.1,25.5,29.94,NE,50,1.0,4.0,65,0.00,,,0.00,Wunderground PWS Mod,2013-02-13 06:24:00,
2013-02-13 01:33:00,35.3,25.1,29.93,NE,50,1.0,4.0,66,0.00,,,0.00,Wunderground PWS Mod,2013-02-13 06:33:00,
2013-02-13 01:43:00,35.0,24.8,29.93,NE,50,0.0,4.0,66,0.00,,,0.00,Wunderground PWS Mod,2013-02-13 06:43:00,
2013-02-13 01:48:00,34.7,25.9,29.95,NE,45,0.0,1.0,70,0.00,,,0.00,Wunderground PWS Mod,2013-02-13 06:48:00,
2013-02-13 01:54:00,34.3,24.8,29.93,NE,50,0.0,4.0,68,0.00,,,0.00,Wunderground PWS Mod,2013-02-13 06:54:00,
2013-02-13 02:03:00,33.5,24.8,29.92,NE,50,0.0,2.0,70,0.00,,,0.00,Wunderground PWS Mod,2013-02-13 07:03:00,
2013-02-13 02:13:00,33.1,25.1,29.91,NE,50,1.0,2.0,72,0.00,,,0.00,Wunderground PWS Mod,2013-02-13 07:13:00,
2013-02-13 02:16:00,33.4,24.3,29.93,NE,45,1.0,3.0,69,0.00,,,0.00,Wunderground PWS Mod,2013-02-13 07:16:00,
2013-02-13 02:23:00,33.6,25.2,29.91,NE,50,1.0,2.0,71,0.00,,,0.00,Wunderground PWS Mod,2013-02-13 07:23:00,
2013-02-13 02:34:00,33.9,24.8,29.90,NE,50,2.0,2.0,69,0.00,,,0.00,Wunderground PWS Mod,2013-02-13 07:34:00,
2013-02-13 02:43:00,34.1,24.6,29.90,NE,50,1.0,3.0,68,0.00,,,0.00,Wunderground PWS Mod,2013-02-13 07:43:00,
2013-02-13 02:46:00,34.1,24.6,29.92,NE,45,1.0,3.0,68,0.00,,,0.00,Wunderground PWS Mod,2013-02-13 07:46:00,
2013-02-13 02:54:00,34.3,24.8,29.89,NE,50,2.0,3.0,68,0.00,,,0.00,Wunderground PWS Mod,2013-02-13 07:54:00,
2013-02-13 03:03:00,33.8,24.4,29.89,NE,50,1.0,3.0,68,0.00,,,0.00,Wunderground PWS Mod,2013-02-13 08:03:00,
2013-02-13 03:14:00,33.4,24.7,29.89,NE,50,2.0,3.0,70,0.00,,,0.00,Wunderground PWS Mod,2013-02-13 08:14:00,
2013-02-13 03:18:00,33.5,25.1,29.90,NE,45,2.0,4.0,71,0.00,,,0.00,Wunderground PWS Mod,2013-02-13 08:18:00,
2013-02-13 03:23:00,33.4,25.0,29.88,NE,50,3.0,3.0,71,0.00,,,0.00,Wunderground PWS Mod,2013-02-13 08:23:00,
2013-02-13 03:34:00,33.3,24.9,29.87,NE,50,2.0,3.0,71,0.00,,,0.00,Wunderground PWS Mod,2013-02-13 08:34:00,
2013-02-13 03:44:00,33.2,24.8,29.87,NE,50,2.0,4.0,71,0.00,,,0.00,Wunderground PWS Mod,2013-02-13 08:44:00,
2013-02-13 03:50:00,33.2,24.8,29.90,NE,45,2.0,5.0,71,0.00,,,0.00,Wunderground PWS Mod,2013-02-13 08:50:00,
2013-02-13 03:52:00,33.2,24.8,29.90,NE,45,2.0,5.0,71,0.00,,,0.00,Wunderground PWS Mod,2013-02-13 08:52:00,
2013-02-13 03:54:00,33.4,24.7,29.88,NE,50,0.0,4.0,70,0.00,,,0.00,Wunderground PWS Mod,2013-02-13 08:54:00,
2013-02-13 04:03:00,32.5,24.1,29.87,NE,50,1.0,4.0,71,0.00,,,0.00,Wunderground PWS Mod,2013-02-13 09:03:00,
2013-02-13 04:13:00,32.1,24.4,29.87,NE,50,2.0,5.0,73,0.00,,,0.00,Wunderground PWS Mod,2013-02-13 09:13:00,
2013-02-13 04:18:00,32.1,24.7,29.89,NE,45,2.0,4.0,74,0.00,,,0.00,Wunderground PWS Mod,2013-02-13 09:18:00,
2013-02-13 04:24:00,31.9,24.6,29.87,NE,50,1.0,5.0,74,0.00,,,0.00,Wunderground PWS Mod,2013-02-13 09:24:00,
2013-02-13 04:33:00,32.6,24.9,29.87,NE,50,0.0,5.0,73,0.00,,,0.00,Wunderground PWS Mod,2013-02-13 09:33:00,
2013-02-13 04:44:00,32.2,24.5,29.88,NE,50,0.0,5.0,73,0.00,,,0.00,Wunderground PWS Mod,2013-02-13 09:44:00,
2013-02-13 04:50:00,31.9,24.9,29.91,NE,45,0.0,2.0,75,0.00,,,0.00,Wunderground PWS Mod,2013-02-13 09:50:00,
2013-02-13 04:52:00,31.9,24.9,29.91,NE,45,0.0,2.0,75,0.00,,,0.00,Wunderground PWS Mod,2013-02-13 09:52:00,
2013-02-13 04:54:00,31.3,23.6,29.88,NE,50,0.0,5.0,73,0.00,,,0.00,Wunderground PWS Mod,2013-02-13 09:54:00,
2013-02-13 05:03:00,31.0,24.0,29.88,NE,50,0.0,4.0,75,0.00,,,0.00,Wunderground PWS Mod,2013-02-13 10:03:00,
2013-02-13 05:13:00,30.8,23.8,29.88,NE,50,0.0,4.0,75,0.00,,,0.00,Wunderground PWS Mod,2013-02-13 10:13:00,
2013-02-13 05:16:00,30.7,24.3,29.90,NE,45,0.0,2.0,77,0.00,,,0.00,Wunderground PWS Mod,2013-02-13 10:16:00,
2013-02-13 05:24:00,30.5,23.8,29.88,NE,50,0.0,4.0,76,0.00,,,0.00,Wunderground PWS Mod,2013-02-13 10:24:00,
2013-02-13 05:33:00,30.5,24.1,29.87,NE,50,2.0,4.0,77,0.00,,,0.00,Wunderground PWS Mod,2013-02-13 10:33:00,
2013-02-13 05:44:00,30.7,24.3,29.88,NE,50,0.0,4.0,77,0.00,,,0.00,Wunderground PWS Mod,2013-02-13 10:44:00,
2013-02-13 05:48:00,30.7,24.3,29.90,NE,45,1.0,3.0,77,0.00,,,0.00,Wunderground PWS Mod,2013-02-13 10:48:00,
2013-02-13 05:53:00,30.9,24.5,29.88,NE,50,2.0,4.0,77,0.00,,,0.00,Wunderground PWS Mod,2013-02-13 10:53:00,
2013-02-13 06:04:00,31.0,24.6,29.87,NE,50,1.0,2.0,77,0.00,,,0.00,Wunderground PWS Mod,2013-02-13 11:04:00,
2013-02-13 06:10:00,30.7,24.3,29.90,NE,45,1.0,3.0,77,0.00,,,0.00,Wunderground PWS Mod,2013-02-13 11:10:00,
2013-02-13 06:12:00,30.7,24.3,29.90,NE,45,1.0,3.0,77,0.00,,,0.00,Wunderground PWS Mod,2013-02-13 11:12:00,
2013-02-13 06:14:00,30.8,24.7,29.87,NE,50,2.0,3.0,78,0.00,,,0.00,Wunderground PWS Mod,2013-02-13 11:14:00,
2013-02-13 06:24:00,30.9,24.8,29.87,NE,50,1.0,3.0,78,0.00,,,0.00,Wunderground PWS Mod,2013-02-13 11:24:00,
2013-02-13 06:33:00,30.8,24.7,29.87,NE,50,1.0,3.0,78,0.00,,,0.00,Wunderground PWS Mod,2013-02-13 11:33:00,
2013-02-13 06:44:00,31.0,24.9,29.86,NE,50,1.0,3.0,78,0.00,,,0.00,Wunderground PWS Mod,2013-02-13 11:44:00,
2013-02-13 06:50:00,31.0,25.6,29.88,NE,45,1.0,3.0,80,0.00,,,0.00,Wunderground PWS Mod,2013-02-13 11:50:00,
2013-02-13 06:52:00,31.0,25.6,29.88,NE,45,1.0,3.0,80,0.00,,,0.00,Wunderground PWS Mod,2013-02-13 11:52:00,
2013-02-13 06:53:00,31.1,25.3,29.86,NE,50,2.0,3.0,79,0.00,,,0.00,Wunderground PWS Mod,2013-02-13 11:53:00,
2013-02-13 06:54:00,31.0,25.6,29.88,NE,45,1.0,3.0,80,0.00,,,0.00,Wunderground PWS Mod,2013-02-13 11:54:00,
2013-02-13 07:03:00,31.7,26.2,29.86,NE,50,1.0,3.0,80,0.00,,,0.00,Wunderground PWS Mod,2013-02-13 12:03:00,
2013-02-13 07:13:00,32.1,26.3,29.86,NE,50,1.0,3.0,79,0.00,,,0.00,Wunderground PWS Mod,2013-02-13 12:13:00,
2013-02-13 07:16:00,32.1,26.3,29.88,NE,45,2.0,4.0,79,0.00,,,0.00,Wunderground PWS Mod,2013-02-13 12:16:00,
2013-02-13 07:23:00,32.0,26.2,29.85,NE,50,1.0,3.0,79,0.00,,,0.00,Wunderground PWS Mod,2013-02-13 12:23:00,
2013-02-13 07:34:00,32.8,26.7,29.85,NE,50,1.0,3.0,78,0.00,,,0.00,Wunderground PWS Mod,2013-02-13 12:34:00,
2013-02-13 07:43:00,32.8,26.7,29.85,NE,50,2.0,4.0,78,0.00,,,0.00,Wunderground PWS Mod,2013-02-13 12:43:00,
2013-02-13 07:48:00,33.0,27.2,29.89,NE,45,2.0,5.0,79,0.00,,,0.00,Wunderground PWS Mod,2013-02-13 12:48:00,
2013-02-13 07:54:00,33.1,27.0,29.86,NE,50,2.0,4.0,78,0.00,,,0.00,Wunderground PWS Mod,2013-02-13 12:54:00,
2013-02-13 08:03:00,33.9,27.8,29.86,NE,50,2.0,4.0,78,0.00,,,0.00,Wunderground PWS Mod,2013-02-13 13:03:00,
2013-02-13 08:13:00,33.8,27.0,29.87,NE,50,3.0,5.0,76,0.00,,,0.00,Wunderground PWS Mod,2013-02-13 13:13:00,
2013-02-13 08:16:00,34.1,27.0,29.89,NE,45,1.0,4.0,75,0.00,,,0.00,Wunderground PWS Mod,2013-02-13 13:16:00,
2013-02-13 08:24:00,34.4,27.6,29.86,NE,50,1.0,5.0,76,0.00,,,0.00,Wunderground PWS Mod,2013-02-13 13:24:00,
2013-02-13 08:33:00,34.9,28.1,29.86,NE,50,2.0,5.0,76,0.00,,,0.00,Wunderground PWS Mod,2013-02-13 13:33:00,
2013-02-13 08:44:00,35.8,27.7,29.85,ENE,62,2.0,5.0,72,0.00,,,0.00,Wunderground PWS Mod,2013-02-13 13:44:00,
2013-02-13 08:46:00,35.9,24.9,29.88,NE,45,2.0,8.0,64,0.00,,,0.00,Wunderground PWS Mod,2013-02-13 13:46:00,
2013-02-13 08:53:00,36.4,27.5,29.86,East,88,3.0,5.0,70,0.00,,,0.00,Wunderground PWS Mod,2013-02-13 13:53:00,
2013-02-13 09:04:00,36.7,25.7,29.86,East,101,6.0,6.0,64,0.00,,,0.00,Wunderground PWS Mod,2013-02-13 14:04:00,
2013-02-13 09:10:00,35.9,24.9,29.88,NE,45,2.0,8.0,64,0.00,,,0.00,Wunderground PWS Mod,2013-02-13 14:10:00,
2013-02-13 09:12:00,35.9,24.9,29.88,NE,45,2.0,8.0,64,0.00,,,0.00,Wunderground PWS Mod,2013-02-13 14:12:00,
2013-02-13 09:13:00,37.1,25.3,29.86,ESE,102,4.0,8.0,62,0.00,,,0.00,Wunderground PWS Mod,2013-02-13 14:13:00,
2013-02-13 09:24:00,37.4,24.4,29.85,SE,134,7.0,8.0,59,0.00,,,0.00,Wunderground PWS Mod,2013-02-13 14:24:00,
2013-02-13 09:33:00,37.8,24.7,29.84,ESE,104,5.0,8.0,59,0.00,,,0.00,Wunderground PWS Mod,2013-02-13 14:33:00,
2013-02-13 09:44:00,38.5,24.6,29.84,East,97,6.0,9.0,57,0.00,,,0.00,Wunderground PWS Mod,2013-02-13 14:44:00,
2013-02-13 09:46:00,38.6,23.8,29.86,ESE,113,5.0,10.0,55,0.00,,,0.00,Wunderground PWS Mod,2013-02-13 14:46:00,
2013-02-13 09:53:00,39.2,24.8,29.84,East,100,6.0,9.0,56,0.00,,,0.00,Wunderground PWS Mod,2013-02-13 14:53:00,
2013-02-13 10:04:00,38.9,24.5,29.84,East,93,3.0,9.0,56,0.00,,,0.00,Wunderground PWS Mod,2013-02-13 15:04:00,
2013-02-13 10:10:00,38.6,23.8,29.86,ESE,113,5.0,10.0,55,0.00,,,0.00,Wunderground PWS Mod,2013-02-13 15:10:00,
2013-02-13 10:12:00,38.6,23.8,29.86,ESE,113,5.0,10.0,55,0.00,,,0.00,Wunderground PWS Mod,2013-02-13 15:12:00,
2013-02-13 10:14:00,39.1,24.3,29.84,ESE,116,4.0,10.0,55,0.00,,,0.00,Wunderground PWS Mod,2013-02-13 15:14:00,
2013-02-13 10:23:00,39.1,24.3,29.83,ESE,116,4.0,10.0,55,0.00,,,0.00,Wunderground PWS Mod,2013-02-13 15:23:00,
2013-02-13 10:34:00,39.1,24.7,29.83,ESE,102,3.0,10.0,56,0.00,,,0.00,Wunderground PWS Mod,2013-02-13 15:34:00,
2013-02-13 10:43:00,39.1,24.7,29.82,SE,130,3.0,10.0,56,0.00,,,0.00,Wunderground PWS Mod,2013-02-13 15:43:00,
2013-02-13 10:48:00,39.1,24.7,29.85,ESE,113,3.0,7.0,56,0.00,,,0.00,Wunderground PWS Mod,2013-02-13 15:48:00,
2013-02-13 10:54:00,39.1,24.7,29.82,ESE,107,3.0,10.0,56,0.00,,,0.00,Wunderground PWS Mod,2013-02-13 15:54:00,
2013-02-13 11:04:00,39.2,24.8,29.82,East,98,2.0,9.0,56,0.00,,,0.00,Wunderground PWS Mod,2013-02-13 16:04:00,
2013-02-13 11:14:00,39.1,24.7,29.82,ESE,105,6.0,9.0,56,0.00,,,0.00,Wunderground PWS Mod,2013-02-13 16:14:00,
2013-02-13 11:18:00,39.2,26.5,29.83,East,90,4.0,9.0,60,0.00,,,0.00,Wunderground PWS Mod,2013-02-13 16:18:00,
2013-02-13 11:23:00,39.1,24.7,29.81,SE,131,3.0,9.0,56,0.00,,,0.00,Wunderground PWS Mod,2013-02-13 16:23:00,
2013-02-13 11:34:00,39.5,27.2,29.81,NE,38,2.0,9.0,61,0.00,,,0.00,Wunderground PWS Mod,2013-02-13 16:34:00,
2013-02-13 11:43:00,40.5,26.4,29.79,NE,46,4.0,9.0,57,0.00,,,0.00,Wunderground PWS Mod,2013-02-13 16:43:00,
2013-02-13 11:46:00,40.6,25.7,29.80,NE,45,4.0,8.0,55,0.00,,,0.00,Wunderground PWS Mod,2013-02-13 16:46:00,
2013-02-13 11:54:00,41.1,27.0,29.78,East,83,4.0,9.0,57,0.00,,,0.00,Wunderground PWS Mod,2013-02-13 16:54:00,
2013-02-13 12:03:00,41.8,26.8,29.77,ESE,111,4.0,9.0,55,0.00,,,0.00,Wunderground PWS Mod,2013-02-13 17:03:00,
2013-02-13 12:13:00,42.2,27.2,29.76,East,89,5.0,9.0,55,0.00,,,0.00,Wunderground PWS Mod,2013-02-13 17:13:00,
2013-02-13 12:16:00,42.2,26.3,29.77,ESE,113,6.0,11.0,53,0.00,,,0.00,Wunderground PWS Mod,2013-02-13 17:16:00,
2013-02-13 12:24:00,42.4,26.5,29.76,ESE,104,7.0,9.0,53,0.00,,,0.00,Wunderground PWS Mod,2013-02-13 17:24:00,
2013-02-13 12:33:00,42.7,26.7,29.75,SE,142,4.0,9.0,53,0.00,,,0.00,Wunderground PWS Mod,2013-02-13 17:33:00,
2013-02-13 12:44:00,42.5,27.0,29.74,ESE,110,2.0,11.0,54,0.00,,,0.00,Wunderground PWS Mod,2013-02-13 17:44:00,
2013-02-13 12:48:00,42.9,26.9,29.75,SE,135,5.0,13.0,53,0.00,,,0.00,Wunderground PWS Mod,2013-02-13 17:48:00,
2013-02-13 12:54:00,43.2,27.2,29.73,SE,128,7.0,11.0,53,0.00,,,0.00,Wunderground PWS Mod,2013-02-13 17:54:00,
2013-02-13 13:03:00,43.3,27.3,29.73,SE,128,5.0,11.0,53,0.00,,,0.00,Wunderground PWS Mod,2013-02-13 18:03:00,
2013-02-13 13:13:00,43.6,27.6,29.72,SE,130,7.0,13.0,53,0.00,,,0.00,Wunderground PWS Mod,2013-02-13 18:13:00,
2013-02-13 13:18:00,43.7,27.7,29.74,East,90,6.0,11.0,53,0.00,,,0.00,Wunderground PWS Mod,2013-02-13 18:18:00,
2013-02-13 13:24:00,43.9,27.9,29.72,ESE,123,7.0,13.0,53,0.00,,,0.00,Wunderground PWS Mod,2013-02-13 18:24:00,
2013-02-13 13:33:00,43.9,27.9,29.71,ESE,102,7.0,13.0,53,0.00,,,0.00,Wunderground PWS Mod,2013-02-13 18:33:00,
2013-02-13 13:44:00,43.9,27.9,29.71,ESE,119,0.0,13.0,53,0.00,,,0.00,Wunderground PWS Mod,2013-02-13 18:44:00,
2013-02-13 13:46:00,43.9,28.3,29.73,ESE,113,4.0,9.0,54,0.00,,,0.00,Wunderground PWS Mod,2013-02-13 18:46:00,
2013-02-13 13:54:00,44.0,28.0,29.69,ESE,104,6.0,13.0,53,0.00,,,0.00,Wunderground PWS Mod,2013-02-13 18:54:00,
2013-02-13 14:04:00,44.0,28.0,29.70,SE,145,4.0,11.0,53,0.00,,,0.00,Wunderground PWS Mod,2013-02-13 19:04:00,
2013-02-13 14:14:00,43.9,28.3,29.70,East,98,2.0,11.0,54,0.00,,,0.00,Wunderground PWS Mod,2013-02-13 19:14:00,
2013-02-13 14:16:00,43.8,28.7,29.70,ENE,68,4.0,9.0,55,0.00,,,0.00,Wunderground PWS Mod,2013-02-13 19:16:00,
2013-02-13 14:24:00,43.8,28.2,29.68,ENE,73,5.0,11.0,54,0.00,,,0.00,Wunderground PWS Mod,2013-02-13 19:24:00,
2013-02-13 14:34:00,43.1,28.0,29.67,NNE,19,3.0,11.0,55,0.00,,,0.00,Wunderground PWS Mod,2013-02-13 19:34:00,
2013-02-13 14:43:00,43.3,28.2,29.67,ENE,76,4.0,11.0,55,0.00,,,0.00,Wunderground PWS Mod,2013-02-13 19:43:00,
2013-02-13 14:48:00,42.9,28.3,29.69,NE,45,4.0,8.0,56,0.00,,,0.00,Wunderground PWS Mod,2013-02-13 19:48:00,
2013-02-13 14:54:00,42.7,27.6,29.67,ENE,60,5.0,11.0,55,0.00,,,0.00,Wunderground PWS Mod,2013-02-13 19:54:00,
2013-02-13 15:03:00,42.6,28.0,29.66,NE,34,4.0,9.0,56,0.00,,,0.00,Wunderground PWS Mod,2013-02-13 20:03:00,
2013-02-13 15:13:00,42.6,28.4,29.65,NE,36,5.0,9.0,57,0.00,,,0.00,Wunderground PWS Mod,2013-02-13 20:13:00,
2013-02-13 15:18:00,42.5,30.0,29.67,NNE,23,4.0,8.0,61,0.00,,,0.00,Wunderground PWS Mod,2013-02-13 20:18:00,
2013-02-13 15:24:00,42.5,28.8,29.65,NNE,20,7.0,9.0,58,0.00,,,0.00,Wunderground PWS Mod,2013-02-13 20:24:00,
2013-02-13 15:34:00,41.8,30.1,29.64,NNE,33,3.0,9.0,63,0.00,,,0.00,Wunderground PWS Mod,2013-02-13 20:34:00,
2013-02-13 15:43:00,41.3,30.4,29.64,NE,43,3.0,9.0,65,0.00,,,0.00,Wunderground PWS Mod,2013-02-13 20:43:00,
2013-02-13 15:46:00,41.4,30.9,29.66,NE,45,4.0,8.0,66,0.00,,,0.00,Wunderground PWS Mod,2013-02-13 20:46:00,
2013-02-13 15:54:00,41.0,30.5,29.64,NE,36,4.0,9.0,66,0.00,,,0.00,Wunderground PWS Mod,2013-02-13 20:54:00,
2013-02-13 16:04:00,41.0,30.5,29.64,NE,35,3.0,8.0,66,0.00,,,0.00,Wunderground PWS Mod,2013-02-13 21:04:00,
2013-02-13 16:13:00,41.1,30.6,29.65,NNE,28,2.0,8.0,66,0.00,,,0.00,Wunderground PWS Mod,2013-02-13 21:13:00,
2013-02-13 16:16:00,40.9,31.9,29.66,NE,45,3.0,5.0,70,0.00,,,0.00,Wunderground PWS Mod,2013-02-13 21:16:00,
2013-02-13 16:24:00,40.8,31.1,29.64,NE,43,2.0,8.0,68,0.00,,,0.00,Wunderground PWS Mod,2013-02-13 21:24:00,
2013-02-13 16:33:00,40.4,31.7,29.63,NNE,32,1.0,8.0,71,0.00,,,0.00,Wunderground PWS Mod,2013-02-13 21:33:00,
2013-02-13 16:43:00,40.2,32.2,29.64,NE,36,4.0,8.0,73,0.00,,,0.00,Wunderground PWS Mod,2013-02-13 21:43:00,
2013-02-13 16:48:00,40.1,32.8,29.66,NE,45,3.0,7.0,75,0.00,,,0.00,Wunderground PWS Mod,2013-02-13 21:48:00,
2013-02-13 16:54:00,39.9,32.6,29.63,NNE,32,3.0,8.0,75,0.00,,,0.00,Wunderground PWS Mod,2013-02-13 21:54:00,
2013-02-13 17:03:00,39.7,32.4,29.64,NE,44,4.0,5.0,75,0.00,,,0.00,Wunderground PWS Mod,2013-02-13 22:03:00,
2013-02-13 17:14:00,39.5,32.9,29.65,NE,42,7.0,7.0,77,0.00,,,0.00,Wunderground PWS Mod,2013-02-13 22:14:00,
2013-02-13 17:18:00,39.3,33.3,29.68,NE,45,5.0,10.0,79,0.01,,,0.01,Wunderground PWS Mod,2013-02-13 22:18:00,
2013-02-13 17:24:00,39.1,32.5,29.65,NNE,33,5.0,7.0,77,0.00,,,0.00,Wunderground PWS Mod,2013-02-13 22:24:00,
2013-02-13 17:33:00,38.9,32.9,29.65,NE,34,5.0,7.0,79,0.00,,,0.00,Wunderground PWS Mod,2013-02-13 22:33:00,
2013-02-13 17:43:00,38.6,33.0,29.65,NE,48,6.0,10.0,80,0.00,,,0.00,Wunderground PWS Mod,2013-02-13 22:43:00,
2013-02-13 17:46:00,38.4,33.7,29.67,NE,45,6.0,11.0,83,0.03,,,0.03,Wunderground PWS Mod,2013-02-13 22:46:00,
2013-02-13 17:54:00,38.1,32.8,29.65,ENE,58,3.0,10.0,81,0.00,,,0.00,Wunderground PWS Mod,2013-02-13 22:54:00,
2013-02-13 18:04:00,37.8,32.8,29.65,NE,35,4.0,10.0,82,0.00,,,0.00,Wunderground PWS Mod,2013-02-13 23:04:00,
2013-02-13 18:14:00,37.3,32.6,29.64,NNE,29,6.0,11.0,83,0.00,,,0.00,Wunderground PWS Mod,2013-02-13 23:14:00,
2013-02-13 18:16:00,37.1,33.0,29.67,NE,45,6.0,10.0,85,0.04,,,0.05,Wunderground PWS Mod,2013-02-13 23:16:00,
2013-02-13 18:23:00,36.8,32.4,29.64,NE,35,5.0,11.0,84,0.00,,,0.00,Wunderground PWS Mod,2013-02-13 23:23:00,
2013-02-13 18:34:00,36.5,32.7,29.65,NE,36,4.0,11.0,86,0.00,,,0.00,Wunderground PWS Mod,2013-02-13 23:34:00,
2013-02-13 18:44:00,36.5,32.7,29.65,NE,40,1.0,11.0,86,0.00,,,0.00,Wunderground PWS Mod,2013-02-13 23:44:00,
2013-02-13 18:50:00,36.4,32.9,29.68,NE,45,5.0,10.0,87,0.04,,,0.07,Wunderground PWS Mod,2013-02-13 23:50:00,
2013-02-13 18:52:00,36.4,32.9,29.68,NE,45,5.0,10.0,87,0.04,,,0.07,Wunderground PWS Mod,2013-02-13 23:52:00,
2013-02-13 18:54:00,36.1,32.3,29.65,ENE,71,5.0,11.0,86,0.00,,,0.00,Wunderground PWS Mod,2013-02-13 23:54:00,
2013-02-13 19:03:00,35.9,32.4,29.65,NE,40,5.0,10.0,87,0.00,,,0.00,Wunderground PWS Mod,2013-02-14 00:03:00,
2013-02-13 19:13:00,35.4,31.9,29.65,NE,39,4.0,10.0,87,0.00,,,0.00,Wunderground PWS Mod,2013-02-14 00:13:00,
2013-02-13 19:18:00,35.3,31.8,29.69,NNE,23,4.0,10.0,87,0.06,,,0.11,Wunderground PWS Mod,2013-02-14 00:18:00,
2013-02-13 19:24:00,35.1,31.6,29.66,NNE,19,5.0,10.0,87,0.00,,,0.00,Wunderground PWS Mod,2013-02-14 00:24:00,
2013-02-13 19:33:00,34.7,31.2,29.66,NNE,21,2.0,10.0,87,0.00,,,0.00,Wunderground PWS Mod,2013-02-14 00:33:00,
2013-02-13 19:44:00,34.1,30.6,29.67,NNE,18,4.0,10.0,87,0.00,,,0.00,Wunderground PWS Mod,2013-02-14 00:44:00,
2013-02-13 19:50:00,34.1,30.9,29.69,NNE,23,4.0,9.0,88,0.07,,,0.14,Wunderground PWS Mod,2013-02-14 00:50:00,
2013-02-13 19:52:00,34.1,30.9,29.69,NNE,23,4.0,9.0,88,0.07,,,0.14,Wunderground PWS Mod,2013-02-14 00:52:00,
2013-02-13 19:54:00,33.8,30.6,29.67,NNE,23,3.0,10.0,88,0.00,,,0.00,Wunderground PWS Mod,2013-02-14 00:54:00,
2013-02-13 20:04:00,33.3,30.1,29.67,NNE,25,4.0,10.0,88,0.00,,,0.00,Wunderground PWS Mod,2013-02-14 01:04:00,
2013-02-13 20:14:00,33.0,29.8,29.67,NNE,23,6.0,10.0,88,0.00,,,0.00,Wunderground PWS Mod,2013-02-14 01:14:00,
2013-02-13 20:16:00,33.0,30.1,29.70,NNE,23,3.0,7.0,89,0.06,,,0.17,Wunderground PWS Mod,2013-02-14 01:16:00,
2013-02-13 20:23:00,32.9,30.0,29.67,NNE,16,2.0,10.0,89,0.00,,,0.00,Wunderground PWS Mod,2013-02-14 01:23:00,
2013-02-13 20:34:00,32.7,29.8,29.67,North,358,3.0,10.0,89,0.00,,,0.00,Wunderground PWS Mod,2013-02-14 01:34:00,
2013-02-13 20:44:00,32.8,30.2,29.67,North,4,3.0,10.0,90,0.00,,,0.00,Wunderground PWS Mod,2013-02-14 01:44:00,
2013-02-13 20:48:00,32.8,30.2,29.70,North,0,3.0,7.0,90,0.07,,,0.21,Wunderground PWS Mod,2013-02-14 01:48:00,
2013-02-13 20:53:00,32.8,30.2,29.67,North,0,1.0,10.0,90,0.00,,,0.00,Wunderground PWS Mod,2013-02-14 01:53:00,
2013-02-13 21:04:00,32.8,30.2,29.67,North,0,2.0,7.0,90,0.00,,,0.00,Wunderground PWS Mod,2013-02-14 02:04:00,
2013-02-13 21:14:00,32.6,30.0,29.67,NNE,18,3.0,7.0,90,0.00,,,0.00,Wunderground PWS Mod,2013-02-14 02:14:00,
2013-02-13 21:16:00,32.7,30.1,29.70,North,0,2.0,6.0,90,0.06,,,0.23,Wunderground PWS Mod,2013-02-14 02:16:00,
2013-02-13 21:24:00,32.7,30.1,29.67,NNE,18,2.0,7.0,90,0.00,,,0.00,Wunderground PWS Mod,2013-02-14 02:24:00,
2013-02-13 21:33:00,32.6,30.0,29.68,North,0,3.0,7.0,90,0.00,,,0.00,Wunderground PWS Mod,2013-02-14 02:33:00,
2013-02-13 21:44:00,32.8,30.2,29.68,NNW,341,2.0,7.0,90,0.00,,,0.00,Wunderground PWS Mod,2013-02-14 02:44:00,
2013-02-13 21:46:00,32.7,30.1,29.73,NNW,338,3.0,8.0,90,0.05,,,0.26,Wunderground PWS Mod,2013-02-14 02:46:00,
2013-02-13 21:53:00,32.7,30.1,29.69,NNW,335,5.0,7.0,90,0.00,,,0.00,Wunderground PWS Mod,2013-02-14 02:53:00,
2013-02-13 22:03:00,32.7,30.1,29.70,NNW,335,2.0,6.0,90,0.00,,,0.00,Wunderground PWS Mod,2013-02-14 03:03:00,
2013-02-13 22:10:00,32.7,30.1,29.73,NNW,338,3.0,8.0,90,0.05,,,0.28,Wunderground PWS Mod,2013-02-14 03:10:00,
2013-02-13 22:12:00,32.7,30.1,29.73,NNW,338,3.0,8.0,90,0.05,,,0.28,Wunderground PWS Mod,2013-02-14 03:12:00,
2013-02-13 22:13:00,32.6,30.0,29.70,North,355,1.0,8.0,90,0.00,,,0.00,Wunderground PWS Mod,2013-02-14 03:13:00,
2013-02-13 22:14:00,32.7,30.1,29.73,NNW,338,3.0,8.0,90,0.05,,,0.28,Wunderground PWS Mod,2013-02-14 03:14:00,
2013-02-13 22:24:00,32.6,30.3,29.71,NNW,332,4.0,8.0,91,0.00,,,0.00,Wunderground PWS Mod,2013-02-14 03:24:00,
2013-02-13 22:34:00,32.5,30.2,29.71,NNW,341,1.0,8.0,91,0.00,,,0.00,Wunderground PWS Mod,2013-02-14 03:34:00,
2013-02-13 22:44:00,32.6,30.3,29.71,North,357,3.0,8.0,91,0.00,,,0.00,Wunderground PWS Mod,2013-02-14 03:44:00,
2013-02-13 22:48:00,32.7,30.4,29.74,North,0,2.0,5.0,91,0.06,,,0.32,Wunderground PWS Mod,2013-02-14 03:48:00,
2013-02-13 22:53:00,32.8,30.5,29.72,North,356,2.0,8.0,91,0.00,,,0.00,Wunderground PWS Mod,2013-02-14 03:53:00,
2013-02-13 23:04:00,33.1,30.8,29.72,North,349,1.0,6.0,91,0.00,,,0.00,Wunderground PWS Mod,2013-02-14 04:04:00,
2013-02-13 23:14:00,33.2,30.9,29.72,North,349,2.0,6.0,91,0.00,,,0.00,Wunderground PWS Mod,2013-02-14 04:14:00,
2013-02-13 23:16:00,33.2,30.9,29.75,North,0,3.0,7.0,91,0.05,,,0.33,Wunderground PWS Mod,2013-02-14 04:16:00,
2013-02-13 23:23:00,33.1,30.8,29.72,NNW,328,3.0,6.0,91,0.00,,,0.00,Wunderground PWS Mod,2013-02-14 04:23:00,
2013-02-13 23:34:00,33.2,30.9,29.73,NW,321,0.0,6.0,91,0.00,,,0.00,Wunderground PWS Mod,2013-02-14 04:34:00,
2013-02-13 23:44:00,33.2,30.9,29.73,NW,321,1.0,7.0,91,0.00,,,0.00,Wunderground PWS Mod,2013-02-14 04:44:00,
2013-02-13 23:46:00,33.3,31.0,29.76,NW,315,2.0,6.0,91,0.03,,,0.33,Wunderground PWS Mod,2013-02-14 04:46:00,
2013-02-13 23:53:00,33.3,31.0,29.73,NW,321,1.0,7.0,91,0.00,,,0.00,Wunderground PWS Mod,2013-02-14 04:53:00,